Weather History for Corinth, MS

Change the Weather History Date:

Wednesday, October 19, 2011

  Actual Average Record
Temperature  
Mean Temperature 46 °F -  
Max Temperature 48 °F 72 °F 88 °F (1934)
Min Temperature 44 °F 45 °F 30 °F (1948)
Degree Days  
Heating Degree Days 19    
Moisture  
Dew Point 40 °F    
Average Humidity 77    
Maximum Humidity 93    
Minimum Humidity 71    
Precipitation  
Precipitation 0.00 in - - ()
Sea Level Pressure  
Sea Level Pressure 29.75 in    
Wind  
Wind Speed 10 mph (WNW)    
Max Wind Speed 16 mph    
Max Gust Speed 23 mph    
Visibility 10 miles    
Events      
Averages and records for this station are not official NWS values.
T = Trace of Precipitation, MM = Missing Value Source: NWS Daily Summary

Daily Weather History Graph

Daily Weather History Graph

Search for Another Location

Airport:

Trip Planner

Search our weather history database for the weather conditions in past years. The results will help you decide how hot, cold, wet, or windy it might be!

Date:

Astronomy

Oct. 19, 2011 Rise Set
Actual Time 7:03 AM CDT 6:14 PM CDT
Civil Twilight 6:37 AM CDT 6:40 PM CDT
Nautical Twilight 6:08 AM CDT 7:09 PM CDT
Astronomical Twilight 5:39 AM CDT 7:39 PM CDT
Moon No Moon Rise 1:28 PM CDT (10/19)
Length of Visible Light 12h 02m
Length of Day
11h 11m
Waning Gibbous, 54% of the Moon is Illuminated
Oct 19
Waning Gibbous
Oct 19
Last Quarter
Oct 26
New
Nov 2
First Quarter
Nov 10
Full

Hourly Weather History & Observations

Time (CDT) Temp. Windchill Dew Point Humidity Pressure Visibility Wind Dir Wind Speed Gust Speed Precip Events Conditions
12:15 AM 46.4 °F 41.5 °F 41.0 °F 81% 29.76 in 10.0 mi NW 10.4 mph - N/A   Overcast
12:35 AM 46.4 °F 41.9 °F 41.0 °F 81% 29.76 in 10.0 mi NW 9.2 mph - N/A   Overcast
12:55 AM 46.4 °F 42.9 °F 41.0 °F 81% 29.75 in 10.0 mi NW 6.9 mph - N/A   Overcast
1:15 AM 46.4 °F 43.5 °F 42.8 °F 87% 29.74 in 10.0 mi NW 5.8 mph - N/A   Overcast
2:15 AM 46.4 °F 42.9 °F 44.6 °F 93% 29.73 in 10.0 mi NW 6.9 mph - N/A   Overcast
2:35 AM 46.4 °F 41.9 °F 44.6 °F 93% 29.72 in 10.0 mi NW 9.2 mph - N/A   Overcast
2:55 AM 46.4 °F 42.9 °F 44.6 °F 93% 29.72 in 10.0 mi WNW 6.9 mph - N/A   Overcast
3:15 AM 46.4 °F 41.5 °F 44.6 °F 93% 29.72 in 10.0 mi NW 10.4 mph - N/A   Overcast
3:35 AM 46.4 °F 41.5 °F 42.8 °F 87% 29.71 in 10.0 mi NW 10.4 mph - N/A   Overcast
3:55 AM 46.4 °F 42.4 °F 42.8 °F 87% 29.71 in 10.0 mi NW 8.1 mph - N/A   Mostly Cloudy
4:15 AM 46.4 °F 41.5 °F 42.8 °F 87% 29.70 in 10.0 mi NW 10.4 mph 17.3 mph N/A   Overcast
4:35 AM 46.4 °F 41.1 °F 41.0 °F 81% 29.71 in 10.0 mi NW 11.5 mph 16.1 mph N/A   Overcast
4:55 AM 46.4 °F 42.4 °F 41.0 °F 81% 29.71 in 10.0 mi NW 8.1 mph - N/A   Overcast
5:15 AM 46.4 °F 41.9 °F 41.0 °F 81% 29.71 in 10.0 mi WNW 9.2 mph - N/A   Overcast
5:35 AM 46.4 °F 41.5 °F 41.0 °F 81% 29.71 in 10.0 mi WNW 10.4 mph - N/A   Overcast
5:55 AM 46.4 °F 41.1 °F 39.2 °F 76% 29.72 in 10.0 mi WNW 11.5 mph 16.1 mph N/A   Overcast
6:15 AM 44.6 °F 39.7 °F 39.2 °F 81% 29.72 in 10.0 mi WNW 9.2 mph - N/A   Overcast
6:35 AM 44.6 °F 39.7 °F 39.2 °F 81% 29.71 in 10.0 mi WNW 9.2 mph - N/A   Partly Cloudy
6:55 AM 44.6 °F 39.7 °F 39.2 °F 81% 29.72 in 10.0 mi NW 9.2 mph - N/A   Clear
7:15 AM 44.6 °F 39.2 °F 39.2 °F 81% 29.71 in 10.0 mi NW 10.4 mph - N/A   Partly Cloudy
7:35 AM 44.6 °F 39.7 °F 39.2 °F 81% 29.71 in 10.0 mi NW 9.2 mph - N/A   Partly Cloudy
7:55 AM 44.6 °F 39.7 °F 39.2 °F 81% 29.71 in 10.0 mi WNW 9.2 mph - N/A   Clear
8:15 AM 44.6 °F 39.7 °F 39.2 °F 81% 29.72 in 10.0 mi NW 9.2 mph - N/A   Clear
8:35 AM 46.4 °F 40.7 °F 39.2 °F 76% 29.72 in 10.0 mi NW 12.7 mph 19.6 mph N/A   Clear
9:15 AM 46.4 °F 41.1 °F 39.2 °F 76% 29.73 in 10.0 mi WNW 11.5 mph 17.3 mph N/A   Overcast
9:30 AM 46.4 °F 40.4 °F 39.2 °F 76% 29.73 in 10.0 mi WNW 13.8 mph 19.6 mph N/A   Overcast
9:55 AM 48.2 °F - 39.2 °F 71% 29.73 in 10.0 mi WNW 16.1 mph 20.7 mph N/A   Overcast
10:15 AM 48.2 °F - 41.0 °F 76% 29.73 in 10.0 mi NW 12.7 mph - N/A   Overcast
10:35 AM 48.2 °F - 39.2 °F 71% 29.74 in 10.0 mi NW 13.8 mph 20.7 mph N/A   Overcast
10:55 AM 48.2 °F - 39.2 °F 71% 29.73 in 10.0 mi NW 10.4 mph 18.4 mph N/A   Overcast
11:15 AM 48.2 °F - 39.2 °F 71% 29.73 in 10.0 mi WNW 13.8 mph 19.6 mph N/A   Overcast
11:35 AM 48.2 °F - 39.2 °F 71% 29.74 in 10.0 mi NW 15.0 mph 20.7 mph N/A   Overcast
11:55 AM 48.2 °F - 39.2 °F 71% 29.74 in 10.0 mi NW 13.8 mph 18.4 mph N/A   Overcast
12:15 PM 48.2 °F - 39.2 °F 71% 29.74 in 10.0 mi NW 11.5 mph 23.0 mph N/A   Overcast
12:35 PM 48.2 °F - 39.2 °F 71% 29.74 in 10.0 mi WNW 13.8 mph 19.6 mph N/A   Overcast
12:55 PM 48.2 °F - 39.2 °F 71% 29.74 in 10.0 mi WNW 16.1 mph 20.7 mph N/A   Overcast
1:15 PM 48.2 °F - 39.2 °F 71% 29.74 in 10.0 mi WNW 15.0 mph 21.9 mph N/A   Overcast
1:35 PM 48.2 °F - 39.2 °F 71% 29.74 in 10.0 mi WNW 12.7 mph - N/A   Overcast
1:55 PM 48.2 °F - 39.2 °F 71% 29.74 in 10.0 mi WNW 12.7 mph 21.9 mph N/A   Overcast
2:15 PM 48.2 °F - 39.2 °F 71% 29.74 in 10.0 mi WNW 15.0 mph 20.7 mph N/A   Overcast
2:35 PM 48.2 °F - 39.2 °F 71% 29.75 in 10.0 mi West 10.4 mph 19.6 mph N/A   Overcast
2:55 PM 48.2 °F - 39.2 °F 71% 29.75 in 10.0 mi West 10.4 mph - N/A   Overcast
3:15 PM 48.2 °F - 39.2 °F 71% 29.76 in 10.0 mi West 10.4 mph - N/A   Overcast
3:30 PM 48.2 °F - 39.2 °F 71% 29.76 in 10.0 mi West 10.4 mph 16.1 mph N/A   Overcast
3:50 PM 48.2 °F - 41.0 °F 76% 29.76 in 10.0 mi West 12.7 mph 18.4 mph N/A   Mostly Cloudy
4:10 PM 48.2 °F - 39.2 °F 71% 29.77 in 10.0 mi West 11.5 mph 18.4 mph N/A   Overcast
4:30 PM 48.2 °F - 39.2 °F 71% 29.78 in 10.0 mi West 12.7 mph 20.7 mph N/A   Overcast
4:55 PM 48.2 °F - 41.0 °F 76% 29.78 in 10.0 mi West 12.7 mph 20.7 mph N/A   Overcast
5:10 PM 48.2 °F - 41.0 °F 76% 29.79 in 10.0 mi West 11.5 mph 19.6 mph N/A   Mostly Cloudy
5:35 PM 48.2 °F - 41.0 °F 76% 29.80 in 9.0 mi West 13.8 mph 18.4 mph N/A   Mostly Cloudy
5:55 PM 46.4 °F 41.1 °F 41.0 °F 81% 29.81 in 10.0 mi West 11.5 mph 16.1 mph N/A   Mostly Cloudy
6:15 PM 48.2 °F - 41.0 °F 76% 29.81 in 10.0 mi West 10.4 mph - N/A   Overcast
6:35 PM 48.2 °F - 41.0 °F 76% 29.82 in 10.0 mi West 8.1 mph - N/A   Overcast
6:50 PM 48.2 °F - 41.0 °F 76% 29.83 in 10.0 mi West 9.2 mph - N/A   Overcast
7:10 PM 48.2 °F - 41.0 °F 76% 29.83 in 10.0 mi West 10.4 mph - N/A   Overcast
7:35 PM 48.2 °F - 41.0 °F 76% 29.84 in 10.0 mi West 6.9 mph - N/A   Overcast
7:50 PM 48.2 °F - 41.0 °F 76% 29.84 in 10.0 mi West 5.8 mph - N/A   Overcast
8:10 PM 48.2 °F - 41.0 °F 76% 29.84 in 10.0 mi West 6.9 mph - N/A   Overcast
8:30 PM 46.4 °F 42.4 °F 41.0 °F 81% 29.85 in 10.0 mi West 8.1 mph - N/A   Mostly Cloudy
9:10 PM 48.2 °F - 41.0 °F 76% 29.85 in 10.0 mi West 11.5 mph 18.4 mph N/A   Overcast
9:30 PM 48.2 °F - 41.0 °F 76% 29.85 in 10.0 mi West 10.4 mph 18.4 mph N/A   Overcast
9:50 PM 48.2 °F - 39.2 °F 71% 29.86 in 10.0 mi WNW 10.4 mph 19.6 mph N/A   Overcast
10:10 PM 48.2 °F - 39.2 °F 71% 29.86 in 10.0 mi West 10.4 mph 18.4 mph N/A   Overcast
11:10 PM 46.4 °F 41.1 °F 37.4 °F 71% 29.86 in 10.0 mi WNW 11.5 mph - N/A   Overcast
11:30 PM 46.4 °F 41.1 °F 37.4 °F 71% 29.86 in 10.0 mi WNW 11.5 mph 17.3 mph N/A   Mostly Cloudy
11:55 PM 44.6 °F 40.2 °F 35.6 °F 71% 29.87 in 10.0 mi West 8.1 mph - N/A   Mostly Cloudy